This demonstration page uses our WeatherBlox Daily Observations layout. Learn more.

Left ArrowRight Arrow

53.62937, 11.41316

Hourly Observations for November 10, 2018

Temp ( °F °C ) Dew Point ( °F °C ) Humidity (%) Winds ( mph kmh ) Pressure ( in mb ) Visibility ( mi km ) Precip ( " mm )
6:50 am 06:50 Partly Cloudy with Mist and Fog 46 8 46 8 100 100 SE 7 11 29.74 1007 3 4 N/A
7:20 am 07:20 Mostly Clear with Mist and Fog 46 8 45 7 93 93 SE 6 9 29.74 1007 3 4 N/A
7:50 am 07:50 Partly Cloudy with Light Rain 48 9 45 7 87 87 SE 6 9 29.74 1007 3 5 N/A
8:20 am 08:20 Partly Cloudy with Light Rain 48 9 45 7 87 87 SE 6 9 29.74 1007 3 5 N/A
8:50 am 08:50 Partly Cloudy 48 9 46 8 94 94 SSE 6 9 29.77 1008 4 6 N/A
9:20 am 09:20 Mostly Sunny 50 10 46 8 88 88 SE 7 11 29.74 1007 6 9 N/A
9:50 am 09:50 Mostly Sunny 50 10 46 8 88 88 SE 8 13 29.74 1007 7 11 N/A
10:20 am 10:20 Mostly Sunny 50 10 45 7 82 82 SE 8 13 29.74 1007 7 11 N/A
10:50 am 10:50 Mostly Sunny 52 11 45 7 77 77 SSE 5 7 29.74 1007 30 48 N/A
11:20 am 11:20 Mostly Sunny 52 11 46 8 82 82 SSE 8 13 29.74 1007 7 11 N/A
11:50 am 11:50 Mostly Sunny 52 11 46 8 82 82 SSE 9 15 29.74 1007 7 11 N/A
12:20 pm 12:20 Mostly Sunny 54 12 45 7 72 72 SSE 8 13 29.74 1007 7 11 N/A
12:50 pm 12:50 Mostly Sunny 54 12 45 7 72 72 SE 7 11 29.71 1006 7 11 N/A
1:20 pm 13:20 Mostly Sunny 54 12 45 7 72 72 SE 8 13 29.71 1006 7 11 N/A
1:50 pm 13:50 Mostly Sunny 54 12 45 7 72 72 SSE 6 9 29.71 1006 7 11 N/A
2:20 pm 14:20 Mostly Sunny 54 12 45 7 72 72 SSE 8 13 29.71 1006 7 11 N/A
2:50 pm 14:50 Mostly Sunny 54 12 46 8 77 77 SE 7 11 29.71 1006 7 11 N/A
3:20 pm 15:20 Mostly Sunny 52 11 46 8 82 82 SE 6 9 29.71 1006 7 11 N/A
3:50 pm 15:50 Mostly Sunny 52 11 46 8 82 82 SSE 6 9 29.71 1006 7 11 N/A
4:20 pm 16:20 Mostly Sunny 52 11 46 8 82 82 SSE 6 9 29.74 1007 6 9 N/A
4:50 pm 16:50 Mostly Cloudy with Light Rain 50 10 46 8 88 88 SE 6 9 29.74 1007 6 9 N/A
5:20 pm 17:20 Mostly Cloudy with Light Rain 50 10 46 8 88 88 SE 7 11 29.74 1007 5 8 N/A
5:50 pm 17:50 Mostly Cloudy with Light Rain 50 10 48 9 94 94 SSE 6 9 29.74 1007 5 8 N/A
6:20 pm 18:20 Mostly Clear 50 10 48 9 94 94 SSE 7 11 29.74 1007 5 8 N/A
6:50 pm 18:50 Mostly Cloudy with Light Rain 52 11 46 8 82 82 SE 8 13 29.74 1007 6 9 N/A

Powered by AerisWeather